Regional Weather Roundup
Issued by NWS

Home | Current Version | Previous Version | Text Only | Print | Product List | Glossary On
Versions: 1 2 3 4 5 6 7 8 9 10 11 12 13 14 15 16 17 18 19 20 21 22 23 24 25 26 27 28 29 30 31 32 33 34 35 36 37 38 39 40 41 42 43 44 45 46 47 48 49 50
000
ASUS43 KLOT 201407
RWRIL

ILLINOIS REGIONAL WEATHER ROUNDUP
NATIONAL WEATHER SERVICE CHICAGO/ROMEOVILLE IL
900 AM CDT FRI SEP 20 2019

NOTE: "FAIR" INDICATES FEW OR NO CLOUDS BELOW 12,000 FEET WITH NO
SIGNIFICANT WEATHER AND/OR OBSTRUCTIONS TO VISIBILITY.

* THESE STATIONS ARE NOT UNDER NWS QUALITY CONTROL. THEY ALSO MAY NOT
  REPORT WEATHER SUCH AS PRECIPITATION OR FOG.

ILZ001-002-007-009-015-016-024-201500-
NORTHWEST ILLINOIS

CITY           SKY/WX    TMP DP  RH WIND       PRES   REMARKS
MOLINE         FAIR      73  66  78 CALM      30.11R
STERLING*      FAIR      70  67  90 W5        30.14R
SAVANNA*       FAIR      70  68  94 SE5       30.12S
$$

ILZ003-004-008-010-011-017-018-201500-
NORTH CENTRAL ILLINOIS

CITY           SKY/WX    TMP DP  RH WIND       PRES   REMARKS
ROCKFORD       CLOUDY    70  68  93 VRB5      30.15R
FREEPORT*      FAIR      68  68 100 CALM      30.15R
ROCHELLE*      FAIR      69  68  98 S6        30.14S
DE KALB*       FAIR      69  69  97 SW5       30.15S
PERU*          FAIR      67  65  93 W5        30.13S
$$

ILZ005-006-012>014-019>023-201500-
NORTHEAST ILLINOIS

CITY           SKY/WX    TMP DP  RH WIND       PRES   REMARKS
CHICAGO-OHARE  CLOUDY    71  66  84 W3        30.13S
CHICAGO-MIDWAY CLOUDY    73  66  78 S5        30.14R
AURORA         FAIR      70  66  87 CALM      30.14R
LANSING*       PTSUNNY   73  66  77 CALM      30.15R
JOLIET*        CLOUDY    72  72 100 CALM      30.15R
WAUKEGAN       CLOUDY    72  64  76 CALM      30.13R
DUPAGE AIRPORT PTSUNNY   73  66  78 SW7       30.13S
KANKAKEE*      PTSUNNY   69  67  93 CALM      30.15S
WHEELING       FAIR      73  66  78 W3        30.15R
MORRIS*        PTSUNNY   69  68  97 CALM      30.13S
ROMEOVILLE*    CLOUDY    70  68  94 CALM      30.15R
NORTHERLY ISL    N/A     73  63  70 SW7         N/A
$$

LMZ740>746-201500-
SOUTHERN LAKE MICHIGAN

STATION/POSITION SKY/WX   TEMP    WIND        PRES    VSBY  WAVE
                          AIR SEA DIR/SP/G                  HT/PER
                          (F)     (DEG/KT/KT) (MB)    (MI)  (FT/S)
SOUTHERN BUOY              69 69  200/  6/  8 1020.8R         0
WAUKEGAN HARBOR            67 64   CALM  /  2   N/A           0
WILMETTE HARBOR               66  130/  2/  4 1018.3          0
HARRISON CRIB              72     170/  4/  4   N/A
NORTHERLY ISL              73     220/  5/  8   N/A
CALUMET HARBOR             71     210/  2/  3 1019.9R
BURNS HARBOR               71      CALM  /  3 1021.0R
MICHIGAN CITY              73     180/  4/  4   N/A
MICHIGAN CITY 6N           69 68  190/  2/  4   N/A           0
ST. JOSEPH                 70 67   CALM  /  2 1020.8          0
$$

ILZ025>027-034>036-040-047-049-050-058-095>099-201500-
WEST-CENTRAL ILLINOIS

CITY           SKY/WX    TMP DP  RH WIND       PRES   REMARKS
QUINCY         SUNNY     73  67  81 E10       30.11R
GALESBURG*     FAIR      73  65  76 E3        30.13F
MACOMB*        SUNNY     72  66  82 E7        30.16S
JACKSONVILLE*  SUNNY     74  65  74 E8        30.14R
PITTSFIELD*    SUNNY     73  70  89 E7        30.14R
$$

ILZ028>032-037-038-041>044-048-051>054-059>061-201500-
CENTRAL ILLINOIS

CITY           SKY/WX    TMP DP  RH WIND       PRES   REMARKS
PONTIAC        LGT RAIN  69  68  96 CALM      30.14F
BLOOMINGTON    FAIR      75  67  76 CALM      30.15F
DECATUR        FAIR      75  64  68 E5        30.15S
PEORIA         CLOUDY    72  64  76 CALM      30.13F
LACON*         LGT RAIN  68  67  97 CALM      30.12F
LINCOLN*       FAIR      73  68  87 S5        30.14F
SPRINGFIELD    FAIR      75  65  70 E5        30.14R
TAYLORVILLE    FAIR      75  64  69 E6        30.14S
$$

ILZ033-039-045-046-055>057-062-063-201500-
EAST-CENTRAL ILLINOIS

CITY           SKY/WX    TMP DP  RH WIND       PRES   REMARKS
CHAMPAIGN      FAIR      73  65  75 E8        30.16R
DANVILLE*      FAIR      73  67  82 CALM      30.14S
RANTOUL*       FAIR      74  66  77 CALM      30.15S
MATTOON        PTSUNNY   71  64  78 E6        30.15R
PARIS*           N/A     71  69  94 CALM      30.17R
$$

ILZ079-100>102-201500-
SOUTHWEST ILLINOIS

CITY           SKY/WX    TMP DP  RH WIND       PRES   REMARKS
ALTON          SUNNY     73  70  88 E6        30.11S
BELLEVILLE     SUNNY     75  70  86 SE3       30.11S
CAHOKIA*       SUNNY     75  69  81 SE8       30.11S
SPARTA*        SUNNY     74  72  91 SE6       30.14S
$$

ILZ064>066-069>071-074>076-080>082-084>086-088>090-092>094-201500-
SOUTH-CENTRAL ILLINOIS

CITY           SKY/WX    TMP DP  RH WIND       PRES   REMARKS
CARBONDALE     FAIR      77  71  82 S12       30.15R
CAIRO*         CLOUDY    76  68  77 S8        30.15S
EFFINGHAM*     FAIR      73  63  70 N3        30.17R
MARION         MOSUNNY   75  72  88 S13       30.16R
MT. VERNON     FAIR      77  72  84 S8        30.15S
CENTRALIA*     SUNNY     77  71  80 S8        30.14R
SALEM*         FAIR      77  73  85 S6        30.15R
METROPOLIS*    FAIR      77  67  71 S8        30.17S
$$

ILZ067-068-072-073-078-083-087-091-201500-
SOUTHEAST ILLINOIS

CITY           SKY/WX    TMP DP  RH WIND       PRES   REMARKS
LAWRENCEVILLE  FAIR      75  69  81 S6        30.17R
FAIRFIELD*     FAIR      76  72  86 S5        30.15R
HARRISBURG*    FAIR      78  68  72 S9        30.17R HX  80
ROBINSON*      PTSUNNY   69  67  96 S3        30.17R
CARMI*         FAIR      75  70  83 S10       30.16R
$$

ABBREVIATIONS USED IN REMARKS
   TC - TEMPERATURE IN CELSIUS
  WCI - WIND CHILL INDEX
   HX - HEAT INDEX
  VSB - VISIBILITY
$$




USA.gov is the U.S. government's official web portal to all federal, state and local government web resources and services.